Regional Weather Roundup
Issued by NWS Little Rock, AR

Home | Current Version | Previous Version | Graphics & Text | Print | Product List | Glossary On
Versions: 1 2 3 4 5 6 7 8 9 10 11 12 13 14 15 16 17 18 19 20 21 22 23 24 25 26 27 28 29 30 31 32 33 34 35 36 37 38 39 40 41 42 43 44 45 46 47 48 49
000
ASUS44 KLZK 270105
RWRLZK

WEATHER ROUNDUP FOR ARKANSAS
NATIONAL WEATHER SERVICE LITTLE ROCK AR
700 PM CST THU FEB 26 2015

NOTE: "FAIR" INDICATES FEW OR NO CLOUDS BELOW 12,000 FEET WITH NO
SIGNIFICANT WEATHER AND/OR OBSTRUCTIONS TO VISIBILITY.

ARZ001-003-010-029-270200-
NORTHWEST ARKANSAS

CITY           SKY/WX    TMP DP  RH WIND       PRES   REMARKS
FAYETTEVILLE   PTCLDY    23   6  48 N8        30.37R WCI  14
FORT SMITH     PTCLDY    30   9  41 NW9       30.40R WCI  22
HARRISON       PTCLDY    23   8  52 N8        30.34R WCI  14
BENTONVILLE    PTCLDY    23   7  50 N12       30.38R WCI  12
ROGERS         CLEAR     21   5  50 N7        30.38R WCI  12
SILOAM SPGS    CLEAR     21   3  45 N9        30.39R WCI  11
HIGHFILL       PTCLDY    22   4  46 N12       30.37R WCI  10
SPRINGDALE     PTCLDY    23   5  46 N12       30.38R WCI  12
$$

ARZ004-005-016-270200-
NORTH CENTRAL ARKANSAS

CITY           SKY/WX    TMP DP  RH WIND       PRES   REMARKS
BATESVILLE     PTCLDY    27  12  54 NW6       30.38R WCI  20
FLIPPIN        PTCLDY    27   9  46 N7        30.37R WCI  19
MTN HOME       CLEAR     24  11  57 N5        30.36R WCI  18
$$

ARZ040-041-270200-
WEST CENTRAL ARKANSAS

CITY           SKY/WX    TMP DP  RH WIND       PRES   REMARKS
MENA           MOCLDY    32  18  55 N10       30.33R WCI  24
MOUNT IDA      FAIR      33  17  51 N6        30.29R WCI  28
$$

ARZ009-017-025-026-028-270200-
NORTHEAST ARKANSAS

CITY           SKY/WX    TMP DP  RH WIND       PRES   REMARKS
CORNING        CLOUDY    27  16  63 N16G22    30.39R WCI  14
JONESBORO      CLOUDY    29  17  61 N7G20     30.37R WCI  22
NEWPORT        CLEAR     28  17  63 N15       30.39R WCI  16
WALNUT RIDGE   FAIR      27  12  54 N14       30.39R WCI  15
BLYTHEVILLE    CLOUDY    28  21  75 N16       30.39R WCI  16
$$

ARZ022-023-033-042-044-270200-
CENTRAL ARKANSAS

CITY           SKY/WX    TMP DP  RH WIND       PRES   REMARKS
LITTLE ROCK    PTCLDY    32  16  51 N13G21    30.36R WCI  22
N LITTLE ROCK  PTCLDY    31  20  66 N8        30.36R WCI  23
JACKSONVILLE   PTCLDY    31  16  54 N6        30.35R WCI  25
SEARCY         CLEAR     29  17  61 N7        30.39R WCI  22
HOT SPRINGS    FAIR      34  19  54 N5        30.33R WCI  30
RUSSELLVILLE   CLEAR     31  13  47 N7        30.36R WCI  24
CLINTON        FAIR      28  14  54 N3        30.39R
$$

ARZ036-270200-
EAST ARKANSAS

CITY           SKY/WX    TMP DP  RH WIND       PRES   REMARKS
WEST MEMPHIS   CLOUDY    30  22  72 N16       30.34R WCI  19
$$

ARZ050-053-066-070-073-270200-
SOUTHWEST ARKANSAS

CITY           SKY/WX    TMP DP  RH WIND       PRES   REMARKS
ARKADELPHIA    FAIR      37  24  60 N10       30.33R
CAMDEN         CLEAR     32  28  86 CALM      30.33R
TEXARKANA      CLEAR     36  26  67 N6        30.31R
EL DORADO      CLEAR     30  29  96 CALM      30.32R
DE QUEEN       PTCLDY    33  17  51 N6        30.35R WCI  28
$$

ARZ056-057-069-270200-
SOUTHEAST ARKANSAS

CITY           SKY/WX    TMP DP  RH WIND       PRES   REMARKS
PINE BLUFF     CLEAR     32  23  69 N12       30.34R WCI  23
STUTTGART      CLEAR     32  21  64 N16       30.34R WCI  21
MONTICELLO     CLEAR     34  26  72 N7        30.31R WCI  28

$$





USA.gov is the U.S. government's official web portal to all federal, state and local government web resources and services.